Date,TemperatureHighF,TemperatureAvgF,TemperatureLowF,DewpointHighF,DewpointAvgF,DewpointLowF,HumidityHigh,HumidityAvg,HumidityLow,PressureMaxIn,PressureMinIn,WindSpeedMaxMPH,WindSpeedAvgMPH,GustSpeedMaxMPH,PrecipitationSumIn
2013-4-1,40,31,23,27,23,17,88,73,49,30.09,30.00,1,0,5,0.02
2013-4-2,37,26,15,21,16,9,78,65,46,30.15,30.03,2,0,5,0.01
2013-4-3,36,23,14,16,10,2,75,58,34,30.41,30.14,2,0,9,0.00
2013-4-4,33,19,9,11,2,-4,60,48,31,30.43,30.03,3,0,8,0.00
2013-4-5,22,14,7,4,-2,-6,55,47,38,30.03,29.68,2,1,7,0.00
2013-4-6,24,8,-5,6,-5,-13,71,56,37,29.69,29.54,2,0,7,0.00
2013-4-7,9,7,1,4,0,-8,79,71,52,29.85,29.57,2,0,4,0.00
2013-4-8,14,4,-7,8,-1,-13,81,77,71,29.87,29.41,2,0,5,0.00
2013-4-9,13,10,7,8,4,2,82,80,74,29.42,29.09,3,0,9,0.00
2013-4-10,14,8,1,3,-1,-9,76,67,51,29.90,29.38,4,1,9,0.00
2013-4-11,8,-1,-7,-1,-9,-14,72,69,65,30.18,29.88,0,0,1,0.00
2013-4-12,23,9,-7,7,-2,-13,79,62,46,30.29,30.17,3,1,7,0.09
2013-4-13,27,13,-3,7,0,-9,75,58,39,30.42,30.29,3,1,6,0.04
2013-4-14,30,18,4,19,8,-3,73,66,53,30.51,30.42,2,0,6,0.02
2013-4-15,34,24,15,15,10,5,77,56,36,30.48,30.40,3,0,8,0.03
2013-4-16,31,22,10,16,9,2,68,57,45,30.40,30.20,2,0,6,0.01
2013-4-17,33,24,13,15,10,4,71,56,43,30.33,30.19,4,0,8,0.01
2013-4-18,35,24,16,15,9,5,62,52,39,30.38,30.33,2,0,10,0.01
2013-4-19,42,26,13,22,11,5,72,55,32,30.43,30.35,4,1,6,0.00
2013-4-20,44,34,19,23,15,11,75,48,30,30.35,30.24,3,1,6,0.00
2013-4-21,45,31,17,23,15,11,78,56,31,30.32,30.27,3,1,6,0.00
2013-4-22,47,32,18,27,17,11,76,56,30,30.43,30.32,3,1,7,0.00
2013-4-23,48,36,23,23,19,16,80,53,32,30.36,30.14,5,1,12,0.00
2013-4-24,38,36,30,26,23,18,74,59,45,30.14,29.93,4,1,10,0.06
2013-4-25,35,27,20,23,8,-1,74,46,32,30.05,29.95,3,0,11,0.01
2013-4-26,31,23,10,23,14,3,83,67,49,29.96,29.57,4,1,7,0.00
2013-4-27,32,27,20,23,12,-1,84,58,28,30.10,29.61,4,1,9,0.00
2013-4-28,36,24,8,18,8,0,75,50,37,30.13,30.04,4,1,10,0.00
2013-4-29,33,28,19,27,20,13,87,72,54,30.08,30.03,5,1,12,0.00
2013-4-30,36,31,28,28,26,22,89,81,62,30.03,29.83,3,0,6,0.18